Flag for Mexico Weather past 2 weeks in Saltillo, Coahuila, Mexico

Now
70 °F

Clear.


Feels Like: 70 °F
Forecast: 63 / 85 °F
Wind: 7 mph from South

Location: Saltillo Airport

Current Time: Sep 1, 2014 at 6:51:01 AM

Latest Report: Sep 1, 2014 at 5:40 AM


Visibility: 10 mi

Pressure: 30.11 "Hg

Humidity: 69%

Dew point: 59 °F

Location of SaltilloLocation

Historic Weather in Saltillo — Graph

°F

Saltillo temperature yesterday

Maximum temperature yesterday: 90 °F (at 2:40 PM)
Minimum temperature yesterday: 64 °F (at 7:40 AM)
Average temperature yesterday: 78 °F

Past Weeks' High & Low Weather Summary

 TemperatureHumidityPressure
High91 °F (Aug 18, 1:45 PM)83% (Aug 18, 8:46 PM)30.25 "Hg (Aug 18, 8:46 PM)
Low64 °F (Aug 25, 7:40 AM)25% (Aug 21, 12:40 PM)30.02 "Hg (Aug 29, 7:40 PM)
Average78 °F53%30.14 "Hg
* Reported Aug 17 5:47 AM — Sep 1 5:40 AM, Saltillo, Weather by CustomWeather, © 2014

Note: Actual official high and low records may vary slightly from our data, if they occured in-between our weather recording intervals... More about our weather records

Advertising

Saltillo weather history for previous 24 hours

 ConditionsComfort  
Time TempWeatherWind HumidityBarometerVisibility
5:40 AM
Sep 1
70 °FClear.7 mph69%30.11 "Hg10 mi
10:40 PM
Aug 31
73 °FClear.8 mph69%30.14 "Hg10 mi
9:40 PM75 °FClear.8 mph69%30.13 "Hg10 mi
6:40 PM81 °FBroken clouds.6 mph51%30.10 "Hg10 mi
5:40 PM81 °FPartly sunny.8 mph45%30.12 "Hg10 mi
4:40 PM88 °FRain. Partly sunny.21 mph43%30.09 "Hg8 mi
3:40 PM88 °FPartly sunny.17 mph43%30.10 "Hg8 mi
2:40 PM90 °FPartly sunny.9 mph41%30.11 "Hg10 mi
1:40 PM86 °FScattered clouds.7 mph46%30.14 "Hg10 mi
12:40 PM86 °FPassing clouds.7 mph46%30.16 "Hg10 mi
11:40 AM82 °FSunny.8 mph45%30.18 "Hg10 mi
10:40 AM81 °FSunny.No wind45%30.18 "Hg10 mi
9:40 AM77 °FSunny.No wind54%30.19 "Hg10 mi
8:40 AM72 °FSunny.No wind61%30.19 "Hg10 mi
7:40 AM64 °FPassing clouds.No wind73%30.18 "Hg10 mi
6:40 AM66 °FClear.No wind78%30.16 "Hg10 mi
Weather by CustomWeather, © 2014

See weather overviewHow to use our weather pages